Weather History for Las Vegas, NM

Change the Weather History Date:

Friday, October 25, 2013

  Actual Average Record
Temperature  
Mean Temperature 47 °F -  
Max Temperature 55 °F 62 °F 80 °F (1959)
Min Temperature 39 °F 33 °F 19 °F (1997)
Degree Days  
Heating Degree Days 18    
Moisture  
Dew Point 37 °F    
Average Humidity 73    
Maximum Humidity 93    
Minimum Humidity 55    
Precipitation  
Precipitation 0.04 in - - ()
Sea Level Pressure  
Sea Level Pressure 30.13 in    
Wind  
Wind Speed 11 mph (SSW)    
Max Wind Speed 25 mph    
Max Gust Speed 36 mph    
Visibility 10 miles    
Events Rain    
Averages and records for this station are not official NWS values.
T = Trace of Precipitation, MM = Missing Value Source: NWS Daily Summary

Daily Weather History Graph

Daily Weather History Graph

Search for Another Location

Airport:

Trip Planner

Search our weather history database for the weather conditions in past years. The results will help you decide how hot, cold, wet, or windy it might be!

Date:

Astronomy

Oct. 25, 2013 Rise Set
Actual Time 7:16 AM MDT 6:12 PM MDT
Civil Twilight 6:50 AM MDT 6:38 PM MDT
Nautical Twilight 6:20 AM MDT 7:08 PM MDT
Astronomical Twilight 5:50 AM MDT 7:37 PM MDT
Moon 11:37 PM MDT (10/25) 12:55 PM MDT (10/25)
Length of Visible Light 11h 48m
Length of Day
10h 56m
Waning Gibbous, 62% of the Moon is Illuminated
Oct 25
Waning Gibbous
Oct 26
Last Quarter
Nov 3
New
Nov 9
First Quarter
Nov 17
Full

Hourly Weather History & Observations

Time (MDT) Temp. Windchill Dew Point Humidity Pressure Visibility Wind Dir Wind Speed Gust Speed Precip Events Conditions
12:53 AM 42.1 °F 39.2 °F 30.9 °F 65% 30.16 in 10.0 mi SW 4.6 mph - N/A   Mostly Cloudy
1:53 AM 43.0 °F 41.3 °F 30.0 °F 60% 30.15 in 10.0 mi SSW 3.5 mph - N/A   Mostly Cloudy
2:53 AM 43.0 °F 39.5 °F 30.0 °F 60% 30.14 in 10.0 mi SSE 5.8 mph - N/A   Overcast
3:53 AM 39.0 °F 33.4 °F 28.9 °F 67% 30.16 in 10.0 mi South 8.1 mph - N/A   Partly Cloudy
4:53 AM 42.1 °F 36.6 °F 30.9 °F 65% 30.19 in 10.0 mi SSW 9.2 mph - N/A   Mostly Cloudy
5:53 AM 39.9 °F 32.9 °F 35.1 °F 83% 30.19 in 7.0 mi South 11.5 mph - 0.01 in Rain Rain
6:53 AM 39.0 °F 32.8 °F 36.0 °F 89% 30.19 in 10.0 mi South 9.2 mph - 0.03 in   Overcast
7:53 AM 39.0 °F 34.0 °F 37.0 °F 93% 30.21 in 10.0 mi SSW 6.9 mph - N/A   Mostly Cloudy
8:53 AM 39.9 °F 32.1 °F 37.9 °F 93% 30.22 in 10.0 mi South 13.8 mph - 0.00 in   Overcast
9:53 AM 44.1 °F 36.5 °F 39.9 °F 85% 30.22 in 10.0 mi SSW 17.3 mph - N/A   Partly Cloudy
10:53 AM 48.9 °F - 39.9 °F 71% 30.16 in 10.0 mi South 16.1 mph 24.2 mph N/A   Clear
11:53 AM 52.0 °F - 39.9 °F 63% 30.13 in 10.0 mi South 21.9 mph - N/A   Partly Cloudy
12:53 PM 51.1 °F - 39.9 °F 66% 30.13 in 10.0 mi SSW 25.3 mph 35.7 mph N/A   Mostly Cloudy
1:53 PM 50.0 °F - 39.9 °F 68% 30.09 in 10.0 mi South 18.4 mph - 0.00 in   Overcast
2:53 PM 48.9 °F - 41.0 °F 74% 30.09 in 10.0 mi SSW 18.4 mph - N/A   Partly Cloudy
3:53 PM 55.9 °F - 39.9 °F 55% 30.06 in 10.0 mi SSW 24.2 mph 28.8 mph N/A   Clear
4:53 PM 52.0 °F - 41.0 °F 66% 30.07 in 10.0 mi South 20.7 mph 27.6 mph N/A   Clear
5:53 PM 50.0 °F - 42.1 °F 74% 30.08 in 10.0 mi SSW 20.7 mph - N/A   Clear
6:53 PM 48.0 °F - 43.0 °F 83% 30.10 in 10.0 mi South 15.0 mph - N/A   Clear
7:53 PM 48.0 °F - 44.1 °F 86% 30.12 in 10.0 mi SSW 16.1 mph - N/A   Clear
8:53 PM 46.0 °F 40.6 °F 42.1 °F 86% 30.14 in 10.0 mi SSW 11.5 mph - N/A   Clear
9:53 PM 46.0 °F 38.8 °F 36.0 °F 68% 30.12 in 10.0 mi West 18.4 mph 23.0 mph N/A   Clear
10:53 PM 46.0 °F 41.0 °F 34.0 °F 63% 30.07 in 10.0 mi West 10.4 mph - N/A   Clear
11:53 PM 45.0 °F 40.6 °F 35.1 °F 68% 30.05 in 10.0 mi North 8.1 mph - N/A   Mostly Cloudy